Location: Sternwarte ZA, Rosenfeld-Brittheim
(48.2889°N, 8.6789°E)
Time: 05:33:00
(UTC+01:00)

ISS - Pass Details

Date: 24 February 2020
Orbit: 415 x 423 km, 51.6° (Epoch: 27 February)

Event Time Altitude Azimuth Distance (km) Brightness Sun altitude
Exits shadow 06:42:43 - 238° (WSW) 2,078 -0.7 -6.5°
Reaches altitude 10° 06:44:08 10° 237° (WSW) 1,499 -1.4 -6.3°
Maximum altitude 06:47:29 69° 154° (SSE) 454 -3.4 -5.7°
Drops below altitude 10° 06:50:51 10° 70° (ENE) 1,509 0.2 -5.2°
Sets 06:52:58 0° 68° (ENE) 2,378 1.2 -4.8°
